FW8648 Weather Reports


time (UTC)temp
C
wind
direction
speed
KPH
gust
KPH
rain 1hr
cm
rain 24hr
cm
rain mn
cm
humidity
%
barometer
mb
20260507220109 12 92 0.0 1.6 0.00 0.00 0.00 81 1010.5
20260507215601 12 92 0.0 1.6 0.00 0.00 0.00 82 1010.6
20260507215056 12 92 0.0 1.6 0.00 0.00 0.00 82 1010.7
20260507214550 12 92 0.0 1.6 0.00 0.00 0.00 81 1010.7
20260507214044 13 92 0.0 1.6 0.00 0.00 0.00 81 1010.8
20260507213538 13 96 0.0 1.6 0.00 0.00 0.00 83 1010.9
20260507213032 13 96 0.0 1.6 0.00 0.00 0.00 84 1010.9
20260507212526 13 96 0.0 1.6 0.00 0.00 0.00 83 1011.1
20260507212020 13 96 0.0 1.6 0.00 0.00 0.00 81 1011.3
20260507211514 13 96 0.0 1.6 0.00 0.00 0.00 82 1011.0
20260507211007 13 96 0.0 1.6 0.00 0.00 0.00 81 1011.2
20260507210502 13 96 0.0 1.6 0.00 0.00 0.00 80 1011.1
20260507205956 13 96 0.0 1.6 0.00 0.00 0.00 79 1011.2
20260507205450 13 96 0.0 1.6 0.00 0.00 0.00 79 1011.1
20260507204944 13 96 0.0 1.6 0.00 0.00 0.00 78 1011.0
20260507204438 13 96 0.0 0.0 0.00 0.00 0.00 75 1011.3
20260507204201 13 96 0.0 3.2 0.00 0.00 0.00 77 1011.0
20260507203426 13 96 0.0 3.2 0.00 0.00 0.00 74 1010.8
20260507203142 13 96 0.0 3.2 0.00 0.00 0.00 77 1010.8
20260507202412 13 96 0.0 3.2 0.00 0.00 0.00 78 1010.9
20260507201908 14 96 0.0 3.2 0.00 0.00 0.00 78 1010.9
20260507201626 14 96 0.0 3.2 0.00 0.00 0.00 77 1010.8
20260507200856 14 96 0.0 1.6 0.00 0.00 0.00 74 1010.7
20260507200608 14 96 0.0 3.2 0.00 0.00 0.00 73 1010.5
20260507195844 14 96 1.6 6.4 0.00 0.00 0.00 72 1010.5
20260507195600 14 98 1.6 6.4 0.00 0.00 0.00 72 1010.3
20260507194842 14 334 0.0 3.2 0.00 0.00 0.00 71 1010.6
20260507194605 14 338 0.0 0.0 0.00 0.00 0.00 74 1010.6
20260507193842 14 338 0.0 0.0 0.00 0.00 0.00 73 1010.6
20260507193339 14 338 0.0 1.6 0.00 0.00 0.00 73 1010.8
20260507192836 14 338 1.6 3.2 0.00 0.00 0.00 73 1010.8
20260507192335 14 338 1.6 3.2 0.00 0.00 0.00 69 1010.9
20260507191835 14 338 0.0 3.2 0.00 0.00 0.00 69 1010.8
20260507191336 14 338 1.6 4.8 0.00 0.00 0.00 72 1010.9
20260507190833 14 5 1.6 4.8 0.00 0.00 0.00 70 1010.9
20260507190334 14 334 0.0 4.8 0.00 0.00 0.00 72 1010.8
20260507185832 14 32 0.0 3.2 0.00 0.00 0.00 72 1010.9
20260507185332 14 32 1.6 3.2 0.00 0.00 0.00 71 1011.0
20260507185055 14 32 1.6 3.2 0.00 0.00 0.00 70 1010.9
20260507184328 14 25 1.6 3.2 0.00 0.00 0.00 71 1011.1
20260507184044 14 25 1.6 6.4 0.00 0.00 0.00 72 1011.0
20260507183326 14 24 1.6 6.4 0.00 0.00 0.00 71 1011.2
20260507182825 14 61 1.6 4.8 0.00 0.00 0.00 73 1011.1
20260507182324 14 61 1.6 3.2 0.00 0.00 0.00 73 1011.2
20260507181824 13 61 0.0 3.2 0.00 0.00 0.00 74 1011.3
20260507181324 13 61 0.0 3.2 0.00 0.00 0.00 74 1011.4
20260507180825 13 61 0.0 3.2 0.00 0.00 0.00 74 1011.4
20260507180325 13 61 1.6 4.8 0.00 0.00 0.00 76 1011.4
20260507175824 13 61 1.6 4.8 0.00 0.00 0.00 77 1011.3
20260507175324 13 60 1.6 3.2 0.00 0.00 0.00 76 1011.6
20260507174825 13 60 1.6 4.8 0.00 0.00 0.00 76 1011.7
20260507174324 13 59 1.6 4.8 0.00 0.00 0.00 75 1011.9
20260507174045 13 116 1.6 6.4 0.00 0.00 0.00 74 1011.9
20260507173323 14 53 1.6 6.4 0.00 0.00 0.00 74 1012.0
20260507172824 14 300 1.6 6.4 0.00 0.00 0.00 73 1012.2
20260507172549 14 62 1.6 6.4 0.00 0.00 0.00 73 1012.3
20260507171820 14 64 1.6 6.4 0.00 0.00 0.00 72 1012.3
20260507171317 14 311 1.6 4.8 0.00 0.00 0.00 71 1012.4
20260507170814 14 71 1.6 6.4 0.00 0.00 0.00 72 1012.1
20260507170314 14 71 1.6 6.4 0.00 0.00 0.00 71 1012.2
20260507165814 14 318 1.6 4.8 0.00 0.00 0.00 71 1012.0
20260507165537 14 53 1.6 4.8 0.00 0.00 0.00 71 1012.3
20260507164811 14 60 1.6 9.7 0.00 0.00 0.00 72 1012.4
20260507164308 14 77 1.6 9.7 0.00 0.00 0.00 72 1012.4
20260507163806 14 71 1.6 8.0 0.00 0.00 0.00 71 1012.4
20260507163308 14 76 1.6 8.0 0.00 0.00 0.00 71 1012.3
20260507162806 14 67 1.6 8.0 0.00 0.00 0.00 71 1012.5
20260507162307 14 80 1.6 6.4 0.00 0.00 0.00 71 1012.6
20260507161805 14 74 1.6 6.4 0.00 0.00 0.00 72 1012.5
20260507161258 14 56 3.2 8.0 0.00 0.00 0.00 71 1012.6
20260507160753 14 280 1.6 8.0 0.00 0.00 0.00 69 1012.3
20260507160247 14 88 1.6 8.0 0.00 0.00 0.00 72 1012.3
20260507155741 14 81 1.6 11.3 0.00 0.00 0.00 70 1012.4
20260507155234 14 66 3.2 11.3 0.00 0.00 0.00 70 1012.3
20260507155215 14 78 1.6 6.4 0.00 0.00 0.00 69 1012.3
20260507154448 15 53 1.6 8.0 0.00 0.00 0.00 69 1012.6
20260507153717 15 71 3.2 14.5 0.00 0.03 0.00 70 1012.4
20260507153211 15 79 3.2 14.5 0.00 0.03 0.00 67 1012.6
20260507152705 15 65 1.6 6.4 0.00 0.05 0.00 70 1012.8
20260507152159 15 63 3.2 8.0 0.00 0.05 0.00 68 1012.6
20260507151916 15 55 3.2 9.7 0.00 0.05 0.00 70 1012.5
20260507151629 15 63 3.2 12.9 0.00 0.05 0.00 69 1012.7
20260507150641 15 61 3.2 12.9 0.00 0.05 0.00 69 1012.8
20260507150135 14 87 3.2 12.9 0.00 0.05 0.00 70 1012.7
20260507145629 14 101 3.2 12.9 0.00 0.05 0.00 70 1012.5
20260507145349 14 70 3.2 12.9 0.00 0.05 0.00 72 1012.8
20260507144615 14 79 3.2 12.9 0.00 0.05 0.00 70 1013.2
20260507144111 14 67 1.6 4.8 0.00 0.05 0.00 72 1013.2
20260507143605 14 36 3.2 11.3 0.00 0.05 0.00 73 1013.1
20260507143057 14 74 3.2 12.9 0.00 0.05 0.00 73 1012.8
20260507142553 14 96 3.2 17.7 0.00 0.05 0.00 72 1012.9
20260507142047 14 64 3.2 17.7 0.00 0.05 0.00 74 1013.0
20260507141541 14 46 3.2 17.7 0.00 0.05 0.00 73 1013.0
20260507141033 14 107 1.6 9.7 0.00 0.05 0.00 76 1013.1
20260507140529 13 96 1.6 9.7 0.00 0.05 0.00 77 1012.9
20260507140024 13 120 1.6 9.7 0.00 0.05 0.00 78 1012.7
20260507135517 13 59 1.6 9.7 0.00 0.05 0.00 79 1012.7
20260507135011 13 63 1.6 6.4 0.00 0.05 0.00 79 1012.6
20260507134504 13 287 1.6 8.0 0.00 0.05 0.00 78 1012.4
20260507133959 13 275 1.6 8.0 0.00 0.05 0.00 79 1012.5
20260507133452 13 44 1.6 8.0 0.00 0.05 0.00 79 1012.4
20260507132945 13 78 1.6 6.4 0.00 0.05 0.00 79 1012.4
20260507132658 13 28 1.6 12.9 0.00 0.05 0.00 80 1012.5
20260507131935 13 103 1.6 12.9 0.00 0.05 0.00 79 1012.6
20260507131428 13 90 3.2 14.5 0.00 0.05 0.00 78 1012.5
20260507130923 13 73 3.2 14.5 0.00 0.05 0.00 79 1012.7
20260507130416 13 72 3.2 8.0 0.00 0.05 0.00 83 1012.9
20260507125911 14 43 3.2 9.7 0.00 0.05 0.00 85 1012.6
20260507125406 14 22 3.2 12.9 0.00 0.05 0.00 85 1012.4
20260507124906 14 61 3.2 12.9 0.00 0.05 0.00 85 1012.2
20260507124407 14 96 3.2 8.0 0.00 0.05 0.00 86 1012.2
20260507123904 14 119 3.2 8.0 0.00 0.05 0.00 87 1012.4
20260507123403 14 87 3.2 9.7 0.00 0.05 0.00 87 1012.4
20260507123120 14 61 3.2 9.7 0.00 0.05 0.00 86 1012.3
20260507122403 14 72 3.2 8.0 0.00 0.05 0.00 86 1012.5
20260507121903 14 67 1.6 8.0 0.00 0.05 0.00 87 1012.5
20260507121405 14 182 1.6 6.4 0.00 0.05 0.00 89 1012.5
20260507120903 14 101 1.6 4.8 0.00 0.05 0.00 89 1012.3
20260507120405 14 53 1.6 6.4 0.00 0.05 0.00 90 1012.3
20260507115905 14 85 1.6 6.4 0.00 0.05 0.00 89 1012.4
20260507115623 14 349 0.0 3.2 0.00 0.05 0.00 89 1012.2
20260507114903 14 74 1.6 3.2 0.00 0.05 0.00 89 1012.3
20260507114403 14 74 1.6 6.4 0.00 0.05 0.00 88 1012.2
20260507113904 14 55 1.6 6.4 0.00 0.05 0.00 88 1012.3
20260507113405 15 53 1.6 6.4 0.00 0.05 0.00 87 1012.3
20260507113128 15 94 1.6 6.4 0.00 0.05 0.00 86 1012.3
20260507112404 15 344 1.6 4.8 0.00 0.05 0.00 85 1012.2
20260507112345 15 81 1.6 6.4 0.00 0.05 0.00 85 1012.2
20260507111358 15 81 1.6 6.4 0.00 0.05 0.00 86 1012.4
20260507110852 15 57 1.6 4.8 0.00 0.05 0.00 87 1012.1
20260507110346 15 348 1.6 3.2 0.00 0.05 0.00 87 1012.0
20260507105840 15 348 1.6 4.8 0.00 0.05 0.00 87 1011.8
20260507105334 15 54 1.6 6.4 0.00 0.05 0.00 87 1011.6
20260507104827 15 307 1.6 6.4 0.00 0.05 0.00 87 1011.5
20260507104322 15 19 1.6 6.4 0.00 0.05 0.00 87 1011.4
20260507104041 15 136 1.6 4.8 0.00 0.05 0.00 87 1011.6
20260507103310 15 32 1.6 4.8 0.00 0.05 0.00 88 1011.4
20260507103022 15 281 1.6 4.8 0.00 0.05 0.00 87 1011.5
20260507102258 15 74 1.6 4.8 0.00 0.05 0.00 87 1011.6
20260507101751 15 5 1.6 3.2 0.00 0.05 0.00 87 1011.6
20260507101245 16 5 1.6 6.4 0.00 0.05 0.00 87 1011.4
20260507100740 16 0 0.0 6.4 0.00 0.05 0.00 87 1011.5
20260507100233 16 264 0.0 3.2 0.00 0.05 0.00 87 1011.5
20260507095728 16 29 1.6 6.4 0.00 0.05 0.00 87 1011.6
20260507095223 16 13 1.6 6.4 0.00 0.05 0.00 86 1011.6
20260507094717 16 306 1.6 4.8 0.00 0.05 0.00 86 1011.5
20260507094210 16 38 1.6 6.4 0.00 0.05 0.00 85 1011.3
20260507093703 16 349 1.6 6.4 0.00 0.05 0.00 85 1011.4
20260507093158 16 5 1.6 6.4 0.00 0.05 0.00 85 1011.4
20260507092652 16 334 1.6 9.7 0.00 0.05 0.00 85 1011.1
20260507092145 17 39 1.6 9.7 0.00 0.05 0.00 84 1011.1
20260507091904 17 225 1.6 6.4 0.00 0.05 0.00 85 1010.9
20260507091134 17 226 1.6 6.4 0.00 0.05 0.00 84 1010.8
20260507090628 17 109 1.6 6.4 0.00 0.05 0.00 85 1010.5
20260507090122 17 344 3.2 11.3 0.00 0.05 0.00 84 1010.7
20260507085615 17 84 1.6 11.3 0.00 0.05 0.00 85 1010.4
20260507085110 17 351 1.6 6.4 0.00 0.05 0.00 85 1010.5
20260507084604 18 315 1.6 6.4 0.00 0.05 0.00 86 1010.6
20260507084322 18 273 1.6 6.4 0.00 0.05 0.00 86 1010.6
20260507083552 18 40 1.6 6.4 0.00 0.05 0.00 86 1010.4
20260507083047 18 14 1.6 6.4 0.00 0.05 0.00 84 1010.4
20260507082540 19 13 1.6 6.4 0.00 0.05 0.00 84 1010.3
20260507082034 19 195 1.6 12.9 0.00 0.05 0.00 84 1010.2
20260507081528 20 0 3.2 12.9 0.00 0.05 0.00 83 1010.2
20260507081244 20 196 1.6 12.9 0.00 0.05 0.00 84 1010.1
20260507080516 21 355 0.0 12.9 0.00 0.05 0.00 84 1010.1
20260507080010 21 249 0.0 1.6 0.00 0.05 0.00 85 1010.2
20260507075504 21 249 0.0 3.2 0.00 0.05 0.00 84 1010.0
20260507074958 21 249 0.0 1.6 0.00 0.05 0.00 84 1010.1
20260507074452 21 249 0.0 1.6 0.00 0.05 0.00 83 1010.2
20260507073946 21 249 1.6 4.8 0.00 0.05 0.00 83 1010.1
20260507073440 21 249 1.6 4.8 0.00 0.05 0.00 83 1010.1
20260507072934 21 239 0.0 4.8 0.00 0.05 0.00 83 1010.0
20260507072428 21 239 0.0 4.8 0.00 0.05 0.00 83 1010.0
20260507071922 21 241 0.0 1.6 0.00 0.05 0.00 83 1009.9
20260507071416 21 241 0.0 3.2 0.00 0.05 0.00 82 1009.7
20260507070912 21 241 1.6 3.2 0.00 0.05 0.00 82 1009.5
20260507070413 21 241 1.6 3.2 0.00 0.05 0.00 82 1009.3
20260507065910 21 241 1.6 4.8 0.00 0.05 0.00 81 1009.2
20260507065410 21 260 1.6 4.8 0.00 0.05 0.00 81 1009.0
20260507064909 21 261 1.6 3.2 0.00 0.05 0.00 81 1008.9
20260507064407 21 223 1.6 4.8 0.00 0.05 0.00 81 1008.9
20260507063907 21 231 1.6 4.8 0.00 0.05 0.00 81 1008.7
20260507063407 22 210 1.6 6.4 0.00 0.05 0.00 80 1008.5
20260507062906 22 209 3.2 6.4 0.00 0.05 0.00 80 1008.7
20260507062406 22 211 3.2 6.4 0.00 0.05 0.00 80 1009.0
20260507061908 22 225 3.2 6.4 0.00 0.05 0.00 79 1009.1
20260507061403 22 216 3.2 4.8 0.00 0.05 0.00 79 1009.0
20260507060904 22 216 1.6 4.8 0.00 0.05 0.00 79 1009.2
20260507060403 22 228 1.6 4.8 0.00 0.05 0.00 79 1009.2
20260507055903 22 228 1.6 4.8 0.00 0.05 0.00 79 1009.3
20260507055402 22 231 1.6 3.2 0.00 0.05 0.00 78 1009.4
20260507055129 22 230 1.6 4.8 0.00 0.05 0.00 78 1009.4
20260507054403 22 229 3.2 4.8 0.00 0.05 0.00 78 1009.6
20260507053902 22 210 3.2 4.8 0.00 0.05 0.00 78 1009.7
20260507053616 22 209 3.2 6.4 0.00 0.05 0.00 78 1009.8
20260507052856 22 209 3.2 6.4 0.00 0.05 0.00 78 1009.9
20260507052358 22 219 3.2 8.0 0.00 0.05 0.00 78 1010.0
20260507051856 21 236 3.2 6.4 0.00 0.05 0.00 78 1010.1
20260507051621 21 277 3.2 4.8 0.00 0.05 0.00 78 1010.1
20260507050844 21 279 1.6 4.8 0.00 0.05 0.00 79 1010.1
20260507050338 21 217 1.6 4.8 0.00 0.05 0.00 79 1010.1
20260507045833 21 217 1.6 3.2 0.00 0.05 0.00 79 1010.1
20260507045326 21 217 1.6 4.8 0.00 0.05 0.00 79 1010.2
20260507045042 21 217 1.6 4.8 0.00 0.05 0.00 79 1010.3
20260507044315 21 216 1.6 4.8 0.00 0.05 0.00 79 1010.3
20260507043808 21 216 1.6 4.8 0.00 0.05 0.00 79 1010.3
20260507043303 21 216 1.6 3.2 0.00 0.05 0.00 79 1010.4
20260507042757 21 216 1.6 3.2 0.00 0.05 0.00 79 1010.4
20260507042250 21 198 1.6 3.2 0.00 0.05 0.00 79 1010.4
20260507041744 21 198 1.6 4.8 0.00 0.05 0.00 79 1010.4
20260507041239 21 198 1.6 4.8 0.00 0.05 0.00 79 1010.2
20260507040734 21 198 1.6 4.8 0.00 0.05 0.00 79 1010.3
20260507040229 21 198 3.2 4.8 0.00 0.05 0.00 79 1010.5
20260507035722 21 196 3.2 6.4 0.00 0.05 0.05 79 1010.2
20260507035217 21 220 3.2 6.4 0.00 0.05 0.05 80 1010.2
20260507034711 21 220 3.2 6.4 0.00 0.05 0.05 80 1010.1
20260507034205 21 225 3.2 6.4 0.00 0.05 0.05 80 1010.3
20260507033658 21 213 3.2 4.8 0.00 0.05 0.05 80 1010.2
20260507033153 21 213 3.2 4.8 0.00 0.05 0.05 80 1010.1
20260507032907 21 214 3.2 4.8 0.00 0.05 0.05 80 1010.2
20260507032403 21 213 3.2 4.8 0.00 0.05 0.05 80 1010.2
20260507031634 21 277 3.2 4.8 0.00 0.05 0.05 80 1010.1
20260507031127 21 218 3.2 6.4 0.00 0.05 0.05 80 1010.0
20260507030847 21 215 3.2 6.4 0.00 0.05 0.05 80 1010.2
20260507030115 21 215 3.2 4.8 0.00 0.05 0.05 80 1010.2
20260507025611 21 215 3.2 4.8 0.00 0.05 0.05 80 1010.3
20260507025104 21 215 3.2 4.8 0.00 0.05 0.05 80 1010.3
20260507024559 21 217 3.2 6.4 0.00 0.05 0.05 80 1010.2
20260507024053 21 217 3.2 6.4 0.00 0.05 0.05 80 1010.2
20260507024031 21 200 1.6 6.4 0.00 0.05 0.05 80 1010.2
20260507023041 21 190 3.2 4.8 0.00 0.05 0.05 80 1010.3
20260507022534 21 190 3.2 4.8 0.00 0.05 0.05 80 1010.5
20260507022523 21 189 1.6 6.4 0.00 0.05 0.05 80 1010.4
20260507021523 21 188 3.2 6.4 0.00 0.05 0.05 80 1010.4
20260507021017 21 209 1.6 4.8 0.00 0.05 0.05 80 1010.3
20260507020509 21 204 1.6 4.8 0.00 0.05 0.05 80 1010.3
20260507020010 21 273 1.6 3.2 0.00 0.05 0.05 80 1010.4
20260507015458 21 273 1.6 4.8 0.00 0.05 0.05 80 1010.4
20260507014953 21 273 1.6 4.8 0.00 0.05 0.05 80 1010.6
20260507014447 21 273 1.6 3.2 0.00 0.05 0.05 80 1010.5
20260507013946 21 273 1.6 3.2 0.00 0.05 0.05 80 1010.4
20260507013708 21 273 1.6 3.2 0.00 0.05 0.05 80 1010.6
20260507012946 21 273 1.6 3.2 0.00 0.05 0.05 80 1010.5
20260507012445 21 273 1.6 3.2 0.00 0.05 0.05 80 1010.3
20260507012206 21 273 1.6 4.8 0.00 0.05 0.05 80 1010.4
20260507011444 21 273 1.6 4.8 0.00 0.05 0.05 80 1010.5
20260507010942 21 274 1.6 3.2 0.00 0.05 0.05 80 1010.6
20260507010441 20 274 0.0 3.2 0.00 0.05 0.05 80 1010.5
20260507005941 21 274 0.0 1.6 0.00 0.05 0.05 80 1010.6
20260507005657 21 274 0.0 1.6 0.00 0.05 0.05 80 1010.6
20260507004940 21 273 0.0 1.6 0.00 0.05 0.05 80 1010.6
20260507004440 21 273 0.0 1.6 0.00 0.05 0.05 79 1010.6
20260507003941 21 273 0.0 1.6 0.00 0.05 0.05 79 1010.6
20260507003439 21 273 0.0 1.6 0.00 0.05 0.05 79 1010.4
20260507002939 21 273 0.0 1.6 0.00 0.05 0.05 78 1010.5
20260507002439 21 273 0.0 0.0 0.00 0.05 0.05 77 1010.4
20260507001941 21 273 0.0 0.0 0.00 0.05 0.05 77 1010.5
20260507001703 21 273 0.0 1.6 0.00 0.05 0.05 76 1010.5
20260507000940 22 273 0.0 1.6 0.00 0.05 0.05 76 1010.5
20260507000442 22 273 0.0 1.6 0.00 0.05 0.05 75 1010.3
20260506235939 22 273 0.0 1.6 0.00 0.05 0.05 75 1010.4
20260506235439 22 273 0.0 1.6 0.00 0.05 0.05 74 1010.4
20260506234934 22 273 0.0 1.6 0.00 0.05 0.05 74 1010.3
20260506234920 22 273 0.0 3.2 0.00 0.05 0.05 74 1010.3
20260506233922 22 272 0.0 3.2 0.00 0.05 0.05 74 1010.3
20260506233416 22 277 0.0 0.0 0.00 0.05 0.05 73 1010.1
20260506232910 22 277 0.0 0.0 0.00 0.05 0.05 73 1010.3
20260506232403 22 277 0.0 1.6 0.00 0.05 0.05 73 1010.2
20260506231858 22 277 1.6 3.2 0.00 0.05 0.05 73 1010.2
20260506231352 23 276 1.6 3.2 0.00 0.05 0.05 72 1010.3
20260506230844 23 276 1.6 4.8 0.00 0.05 0.05 72 1010.1
20260506230338 23 277 1.6 4.8 0.00 0.05 0.05 72 1010.0
20260506225834 23 277 1.6 4.8 0.00 0.05 0.05 71 1010.0
20260506225327 23 277 1.6 4.8 0.00 0.05 0.05 71 1010.1
20260506224821 23 277 1.6 4.8 0.00 0.05 0.05 71 1010.1
20260506224316 23 323 1.6 6.4 0.00 0.05 0.05 70 1010.2
20260506223810 23 325 3.2 6.4 0.00 0.05 0.05 70 1010.1
20260506223304 23 218 1.6 4.8 0.00 0.05 0.05 70 1010.2
20260506222758 23 319 3.2 6.4 0.00 0.05 0.05 70 1010.1
20260506222740 23 234 3.2 6.4 0.00 0.05 0.05 69 1010.1
20260506221746 23 234 3.2 8.0 0.00 0.05 0.05 69 1010.1
20260506221240 23 218 3.2 8.0 0.00 0.05 0.05 69 1010.2
20260506220734 23 211 3.2 8.0 0.00 0.05 0.05 69 1010.3